Location: Alunu
(45.6833°N, 23.1000°E)
Time: 13:21:57
(UTC+00:00)

Daily predictions for brighter satellites

Satellite Brightness Start Highest point End
(mag) Time Altitude Azimuth Time Altitude Azimuth Time Altitude Azimuth
Aureole 3 Rocket 3.8 18:33:53 10° N 18:38:29 83° W 18:44:58 10° S
Lacrosse 4 Rocket 3.6 18:39:59 10° N 18:42:25 15° NE 18:44:52 10° ENE
Lacrosse 5 rocket 4.1 18:39:41 10° NW 18:42:43 18° N 18:45:43 10° NE
CZ-4 R/B 3.7 18:43:41 10° SW 18:46:40 22° W 18:49:42 10° NW
Cosmos 1408 Rocket 4.3 18:44:51 10° N 18:49:02 38° ENE 18:53:11 10° SE
MOS 1-B Rocket 4.5 18:43:20 10° S 18:50:42 78° WSW 18:57:01 10° NNW
CSL-04 Rocket 4.4 18:47:07 10° S 18:52:16 53° W 18:57:27 10° NNW
Cosmos 1340 Rocket 4.2 18:50:43 10° SE 18:53:47 22° E 18:56:51 10° NE
USA 306 3.0 18:50:43 10° WNW 18:54:23 54° SW 18:58:10 10° SE
CZ-4C R/B 3.4 18:50:36 10° NNE 18:54:29 60° ESE 18:58:28 10° S
SPOT 5 2.8 18:51:32 10° SSE 18:55:56 59° ENE 19:00:13 10° N
USA 186 4.4 18:54:36 10° SW 18:57:02 20° W 18:59:32 10° NW
Ariane Rocket 4.0 18:54:11 10° SE 18:58:40 33° ENE 19:03:09 10° N
SPOT 3 Rocket 4.4 19:01:32 10° SE 19:06:03 34° ENE 19:10:41 10° N
Cosmos 2279 Rocket 4.0 19:01:11 10° N 19:07:24 77° E 19:13:35 10° SSE
IRS-1C Rocket 4.1 19:02:57 10° SSE 19:08:11 72° ENE 19:13:27 10° N
Cosmos 1603 3.7 19:05:04 10° SSW 19:10:44 85° ESE 19:16:30 10° NNE
Cosmos 2369 Rocket 3.6 19:06:05 10° NW 19:11:03 33° WSW 19:16:00 10° SSW
Cosmos 1726 1.7 19:09:24 10° NNW 19:12:32 77° W 19:15:37 10° S
ERS-1 Rocket 3.2 19:09:20 11° SSE 19:14:04 59° ENE 19:19:01 10° N
Okean-O 3.2 19:11:21 10° S 19:15:40 57° W 19:20:02 10° NNW
USA 245 2.8 19:14:41 18° SE 19:16:01 36° ENE 19:18:24 10° N
Cosmos 1452 Rocket 3.9 19:13:18 10° NNW 19:18:29 61° WSW 19:23:37 10° S
Okean 1 3.2 19:15:15 10° S 19:19:03 62° E 19:22:55 10° NNE
USA 59 Rocket 0.6 19:20:27 10° NNW 19:24:17 53° NE 19:28:32 15° ESE
Cosmos 1500 Rocket 3.5 19:20:54 10° N 19:25:12 67° E 19:28:44 15° SSE
NOSS 2-1 (E) 4.0 19:23:14 10° NNW 19:27:06 56° NE 19:31:15 16° SE
Cosmos 1975 4.3 19:25:43 10° NNE 19:28:53 23° ENE 19:30:56 16° ESE
Meteor 1-19 Rocket 4.3 19:24:01 10° S 19:29:48 65° E 19:35:26 10° NNE
SL-8 R/B 4.2 19:27:00 10° W 19:31:43 61° N 19:36:27 10° E
Meteor 1-10 Rocket 4.4 19:27:37 10° SSW 19:33:18 75° WNW 19:38:55 10° N
DELTA 2 R/B (1) 4.4 19:29:42 10° SW 19:34:27 29° SSE 19:39:13 10° E
Cosmos 1805 Rocket 3.5 19:32:10 10° N 19:36:35 74° E 19:39:54 17° SSE
Sich 1 3.0 19:33:33 10° N 19:37:58 77° E 19:41:13 18° SSE
Molniya-1 4.2 19:35:08 10° SSW 19:38:30 51° ESE 19:46:42 10° NE
NOSS 2-1 (D) 3.7 19:36:12 10° NW 19:40:07 75° NE 19:43:47 19° SE
Cosmos 1633 Rocket 4.5 19:36:54 10° NNE 19:40:32 24° ENE 19:42:45 17° ESE
Cosmos 1536 3.4 19:38:23 10° NNW 19:42:12 52° W 19:45:45 12° S
ISS -1.2 19:43:19 10° WSW 19:44:14 11° SW 19:45:09 10° SSW
Meteor 1-11 Rocket 4.1 19:38:51 10° NNW 19:44:31 67° W 19:50:02 11° S
Terra 1.8 19:43:43 16° S 19:47:26 82° WSW 19:52:10 10° NNW
Spot 1 4.5 19:43:45 10° NNE 19:47:42 42° E 19:50:04 22° SSE
BREEZE-M DEB (TANK) 4.2 19:44:48 10° W 19:48:53 88° N 20:02:04 10° E
ARGOS Delta rocket 4.2 19:46:10 12° S 19:50:37 61° W 19:55:16 10° NNW
Cosmos 1992 Rocket 4.2 19:48:44 10° NNW 19:53:54 59° ENE 19:57:05 23° SE
Cosmos 1302 Rocket 4.2 19:51:49 10° NNW 19:57:00 68° WSW 20:00:37 20° S
NOSS 3-3 (A) 3.8 19:53:27 10° SSW 19:58:41 56° ESE 20:04:42 10° NE
Cosmos 1697 Rocket 4.0 19:56:43 10° N 20:01:37 30° NE 20:05:28 15° ESE
Meteor 2-10 4.5 19:56:39 10° NNW 20:02:01 60° W 20:06:12 16° S
USA 281 3.4 19:58:04 20° SE 20:02:43 64° ENE 20:09:13 10° NNW
BREEZE-M DEB (TANK) 4.4 20:02:47 10° W 20:06:27 69° N 20:21:27 10° E
Landsat 4 4.5 20:07:17 20° SSW 20:09:17 41° W 20:12:36 10° NNW
MOS 1 Rocket 3.7 20:06:31 20° S 20:10:08 73° WSW 20:15:32 10° NNW
Cosmos 1980 Rocket 4.1 20:06:51 10° N 20:10:58 20° NE 20:15:05 10° E
FALCON 9 R/B 4.3 20:05:45 10° WSW 20:11:23 31° S 20:19:08 20° SE
Spot 2 Rocket 4.0 20:10:35 18° S 20:14:12 54° W 20:19:10 10° NNW
Cosmos 1340 3.6 20:13:21 10° NNW 20:16:30 36° W 20:18:12 21° SSW
NOSS 2-1 (C) 4.0 20:13:20 10° NW 20:17:18 56° SW 20:19:54 27° SSE
Meteor 2-4 Rocket 3.8 20:16:16 20° S 20:20:31 79° E 20:26:29 10° NNE
Lacrosse 4 Rocket 1.3 20:17:07 10° NNW 20:21:13 79° WSW 20:22:48 37° SSE
Lacrosse 5 rocket 3.7 20:19:05 10° NW 20:22:19 21° NNE 20:25:29 10° ENE
Cosmos 1428 Rocket 4.5 20:20:29 17° S 20:25:22 83° W 20:31:31 10° N
IRIDIUM 104 4.3 20:21:37 10° N 20:26:52 82° E 20:29:34 30° S
H-2A R/B 4.2 20:26:00 18° E 20:27:36 22° ENE 20:30:55 10° NNE
NOSS 3-3 (C) 3.7 20:26:17 10° SW 20:31:39 87° SE 20:38:00 10° NE
Cosmos 1842 4.4 20:32:57 25° E 20:32:58 25° E 20:36:04 10° NNE
Cosmos 1626 1.6 20:33:21 59° S 20:33:53 90° S 20:37:08 10° N
IRIDIUM 114 4.3 20:30:45 10° N 20:36:00 83° W 20:38:40 30° S
Cosmos 1151 Rocket 4.2 20:32:39 13° SW 20:36:17 40° WNW 20:40:23 10° N
Ariane Rocket 4.2 20:34:06 16° SSW 20:37:31 35° W 20:42:10 10° NNW
Cosmos 1092 Rocket 4.0 20:37:23 21° SSW 20:41:43 82° W 20:48:06 10° N
ARIANE 5 R/B 3.0 20:41:04 35° ESE 20:42:23 48° ENE 20:46:32 10° N
CZ-2C R/B 3.9 20:38:13 10° NNE 20:42:34 49° E 20:43:34 41° SE
IRIDIUM 103 4.5 20:39:57 10° N 20:45:08 69° W 20:47:49 29° SSW
Landsat 5 4.2 20:41:59 10° N 20:45:38 46° WNW 20:47:52 21° SW
Cosmos 1833 Rocket 2.6 20:43:39 29° S 20:46:29 66° ESE 20:52:04 10° NNE
MetOp-A 4.3 20:44:25 30° SSW 20:46:33 55° W 20:51:29 10° NNW
Cosmos 1674 3.0 20:47:56 42° E 20:47:56 42° E 20:51:11 10° NNE
Cosmos 1818 4.2 20:45:03 10° SW 20:50:24 57° NW 20:55:50 10° NNE
Cosmos 1328 Rocket 3.8 20:50:56 31° SSW 20:52:49 64° W 20:57:08 10° N
Cosmos 724 4.4 20:51:21 33° S 20:53:44 54° ESE 20:59:25 10° NE
Cosmos 1656 4.1 20:49:46 10° NW 20:55:04 51° WSW 20:57:19 32° SSW
Cosmos 1766 3.0 20:51:43 10° N 20:55:29 87° W 20:56:04 62° S
Cosmos 407 Rocket 4.1 20:54:39 34° SE 20:55:38 38° ESE 21:00:27 10° NE
Cosmos 2082 Rocket 3.4 20:57:01 24° ESE 20:57:37 25° ESE 21:02:09 10° NE
Cosmos 1515 Rocket 3.4 21:01:28 52° SSE 21:02:24 75° E 21:06:44 10° NNE
Cosmos 1975 4.3 21:01:22 10° NNW 21:04:45 28° W 21:06:07 22° SW
Cosmos 2360 4.2 20:59:06 10° NNW 21:04:48 72° WSW 21:06:58 39° S
Cosmos 44 Rocket 3.2 20:59:57 10° NW 21:04:53 88° NE 21:06:18 47° SE
Cosmos 1470 2.7 21:05:11 10° N 21:08:51 60° E 21:09:03 59° E
USA 59 Rocket 2.0 21:10:28 10° WNW 21:13:59 22° WSW 21:15:05 21° SW
SL-8 R/B 3.6 21:09:36 10° WNW 21:14:23 89° NNE 21:16:15 38° ESE
Cosmos 1470 Rocket 3.9 21:10:03 10° NNW 21:14:25 59° W 21:15:31 44° SSW
Cosmos 1869 Rocket 4.1 21:11:48 10° N 21:16:00 43° ENE 21:16:46 39° ESE
Cosmos 1633 Rocket 4.3 21:14:19 10° NNW 21:18:18 33° W 21:19:46 26° SW
Cosmos 2251 Rocket 3.7 21:18:49 46° SSE 21:19:58 55° ESE 21:25:07 10° NNE
DELTA 2 R/B (1) 3.8 21:14:55 10° WSW 21:20:14 45° S 21:20:14 45° S
MINOTAUR 4 R/B 4.3 21:19:25 10° N 21:22:00 50° NW 21:22:00 50° NW
GEOS 3 Rocket 3.9 21:17:11 10° NNE 21:22:19 64° NW 21:27:03 12° SW
PSLV R/B 4.1 21:26:14 10° N 21:30:16 66° WNW 21:31:01 52° SW
Cosmos 1417 Rocket 4.4 21:25:45 10° N 21:32:05 88° E 21:34:24 42° S
Cosmos 1908 3.0 21:28:58 10° N 21:32:24 76° NE 21:32:24 76° NE
Meteor 1-15 Rocket 4.4 21:32:26 10° N 21:38:01 62° ENE 21:39:44 42° SE
Cosmos 1933 Rocket 3.7 21:35:06 10° NNW 21:39:25 62° W 21:40:05 54° SW
Cosmos 1400 Rocket 3.7 21:40:40 35° E 21:40:40 35° E 21:44:05 10° NNE
GP-B 4.0 21:36:49 10° NNE 21:40:50 34° E 21:41:17 33° E
Cosmos 1697 Rocket 3.1 21:40:24 10° NW 21:45:49 49° WSW 21:47:10 41° SSW
USA 281 4.5 21:44:56 21° SW 21:47:36 27° WSW 21:53:06 10° NW
Cosmos 1607 4.4 21:42:38 13° SW 21:48:19 62° NW 21:54:47 10° NNE
USA 267 4.1 21:42:57 10° ENE 21:48:28 29° SE 21:48:32 29° SE
In-Cosmos 22 4.2 21:49:38 47° S 21:51:24 87° E 21:57:09 10° NNE
ALOS 2 2.4 21:51:27 68° SSE 21:52:00 85° ENE 21:56:25 10° NNW
Cosmos 1707 3.4 21:52:01 42° W 21:52:13 42° WNW 21:55:43 10° N
Orbus 7S? 4.4 21:50:48 10° WSW 21:55:04 38° NW 21:57:48 10° NE
Cosmos 1980 Rocket 2.1 21:49:58 10° NNW 21:55:43 85° WSW 21:57:19 49° SSE
Cosmos 1140 Rocket 4.4 21:55:40 24° WSW 21:58:25 44° WNW 22:03:25 10° N
PSLV R/B 3.9 21:54:42 10° NNE 21:59:02 49° E 21:59:13 49° ESE
Lacrosse 5 rocket 1.8 21:57:17 10° NW 22:01:24 58° NE 22:02:20 45° E
S3M 4.1 21:55:04 10° NNW 22:01:25 68° W 22:03:40 41° SSW
H-2A R/B 3.3 22:02:00 38° WSW 22:02:17 38° W 22:06:19 10° NNW
Cosmos 1441 Rocket 3.4 21:58:45 10° NNW 22:01:54 57° WNW 22:01:54 57° WNW
Cosmos 1300 3.2 21:59:00 10° N 22:02:12 47° ENE 22:02:12 47° ENE
NOSS 3-4 (A) 4.0 22:00:15 10° NW 22:07:09 62° WSW 22:10:02 39° S
NOSS 3-4 (C) 4.0 22:00:21 10° NW 22:07:15 62° WSW 22:10:09 39° S
Cosmos 1953 4.3 22:06:44 10° NNE 22:09:33 19° ENE 22:10:20 18° E
BREEZE-M DEB (TANK) 4.1 22:09:26 10° WNW 22:15:29 18° ESE 22:17:52 10° ESE
Cosmos 1707 Rocket 3.6 22:12:18 62° ESE 22:12:39 65° E 22:17:04 10° NNE
SL-14 R/B 3.3 22:13:16 68° ENE 22:13:16 68° ENE 22:16:52 10° NNE
Spot 4 4.4 22:12:43 41° WSW 22:13:23 43° W 22:17:57 10° NNW
Cosmos 2315 Rocket 4.1 22:13:30 10° NNW 22:19:47 72° W 22:21:53 44° SSW
Cosmos 2369 3.7 22:15:12 10° NNW 22:20:54 71° WSW 22:22:16 51° S
USA 234 4.3 22:18:41 10° E 22:24:49 45° NNE 22:30:58 10° NW
Meteor 1-12 Rocket 4.4 22:19:22 10° NNW 22:25:18 72° W 22:27:01 47° SSW
COSMOS 2406 3.2 22:27:11 45° SW 22:29:04 81° WNW 22:34:53 10° NNE
Meteor 1-23 Rocket 4.4 22:29:34 44° SW 22:31:16 66° WNW 22:36:54 10° N
Cosmos 1763 Rocket 3.8 22:27:40 10° NNW 22:32:46 50° WSW 22:33:32 46° SW
Cosmos 540 Rocket 3.4 22:28:21 10° NNW 22:33:30 67° WSW 22:34:20 56° SSW
Cosmos 468 Rocket 3.9 22:28:31 10° NNW 22:33:48 72° WSW 22:34:47 57° S
Cosmos 1758 3.5 22:30:11 10° NNW 22:33:45 57° WNW 22:33:45 57° WNW
SL-16 R/B 2.8 22:28:47 10° NNW 22:34:20 51° ENE 22:37:20 26° ESE
H-2A R/B 1.9 22:32:48 10° NNE 22:37:14 87° WNW 22:37:41 72° SSW
Okean 3 3.2 22:38:35 78° ESE 22:38:40 79° E 22:42:47 10° NNE
Cosmos 1244 Rocket 4.4 22:36:58 45° S 22:38:56 76° E 22:45:10 10° NNE
Cosmos 2082 Rocket 2.7 22:38:48 32° WSW 22:41:17 56° WNW 22:46:56 10° NNE
Cosmos 676 Rocket 4.0 22:41:34 51° SW 22:42:56 79° WNW 22:48:18 10° NNE
Cosmos 1455 3.2 22:39:57 10° N 22:43:08 32° ENE 22:43:10 32° ENE
Cosmos 1908 Rocket 4.3 22:39:04 10° N 22:43:18 44° ENE 22:44:13 38° ESE
Okean 2 3.8 22:43:52 49° E 22:43:54 49° E 22:47:45 10° NNE
Aureole 3 3.7 22:45:21 45° N 22:45:21 45° N 22:47:44 10° N
Cosmos 1954 Rocket 4.2 22:43:02 43° SW 22:44:38 64° WNW 22:49:55 10° NNE
BREEZE-M DEB (TANK) 4.3 22:42:15 11° W 22:45:27 63° N 22:55:58 10° ENE
Cosmos 2360 Rocket 3.6 22:42:41 10° NNW 22:47:52 34° NE 22:52:52 11° ESE
Cosmos 1733 Rocket 3.3 22:43:39 10° NNW 22:47:54 54° W 22:48:07 53° WSW
Meteor 2-20 Rocket 4.5 22:44:16 10° N 22:50:50 86° W 22:53:07 43° S
Cosmos 2228 Rocket 4.0 22:58:02 34° W 22:58:52 37° WNW 23:03:04 10° N
Cosmos 1315 Rocket 3.0 23:00:04 55° ESE 23:00:08 55° E 23:04:00 10° NNE
ATLAS 2AS CENTAUR R/B 4.0 22:57:34 10° NNW 23:03:55 37° NE 23:10:03 10° ESE
Cosmos 2237 4.1 23:01:18 10° NNW 23:07:04 84° WSW 23:09:03 43° SSE
Okean 1-7 2.9 23:09:28 67° SW 23:09:57 77° W 23:14:17 10° N
Helios 1A Rocket 3.5 23:11:00 41° ESE 23:11:47 48° ENE 23:15:29 10° N
Cosmos 1346 Rocket 3.7 23:10:53 10° NNW 23:14:08 34° W 23:14:08 34° W
Cosmos 2278 3.8 23:13:58 10° NNW 23:19:35 59° WSW 23:21:03 45° SSW
SL-4 R/B 2.7 23:21:10 40° ESE 23:21:10 40° ESE 23:24:49 10° ENE
Cosmos 1703 Rocket 3.5 23:22:16 62° SSW 23:23:00 86° W 23:27:30 10° N
Timation 1 Rocket 4.3 23:25:33 42° SSW 23:27:40 83° ESE 23:33:40 10° NNE
Cosmos 2322 Rocket 2.2 23:24:07 10° NNW 23:29:49 84° ENE 23:32:46 30° SSE
Cosmos 1300 Rocket 3.9 23:27:01 10° N 23:31:18 59° E 23:32:35 40° SE
USA 267 3.2 23:25:24 10° NE 23:31:59 88° NW 23:35:51 27° SW
Cosmos 1238 4.5 23:31:40 10° N 23:34:34 63° NNW 23:34:34 63° NNW
SJ 16-02 1.6 23:34:22 47° SSE 23:35:10 55° ESE 23:39:24 10° NNE
Cosmos 1980 Rocket 4.2 23:36:21 10° WNW 23:38:47 13° W 23:39:03 13° W
Cosmos 968 Rocket 3.4 23:37:40 46° SSW 23:39:13 86° ESE 23:44:24 10° NNE
Lacrosse 5 rocket 3.5 23:36:13 10° WNW 23:37:07 14° W 23:37:07 14° W
Meteor 1-4 Rocket 3.6 23:41:04 27° NW 23:41:04 27° NW 23:43:13 10° N
Cosmos 2333 Rocket 2.3 23:36:44 10° NNW 23:42:30 76° ENE 23:46:35 20° SSE
Resurs 1-4 Rocket 3.5 23:38:39 10° NE 23:43:14 30° E 23:46:05 19° SE
Cosmos 1953 3.1 23:41:57 10° NNW 23:45:26 34° W 23:45:26 34° W
CZ-2D R/B 3.5 23:43:04 10° NNE 23:47:54 32° E 23:51:00 18° SE
Cosmos 2242 Rocket 3.7 23:47:02 43° SSE 23:48:22 67° E 23:52:52 10° NNE
SL-16 R/B 4.5 23:43:49 10° ESE 23:48:54 27° ENE 23:53:59 10° N
Cosmos 1850 Rocket 4.4 23:47:01 35° SW 23:49:00 56° WNW 23:54:11 10° NNE
Cosmos 1703 4.0 23:50:55 35° SE 23:51:49 42° E 23:55:22 10° NNE
Cosmos 1745 Rocket 4.1 23:49:42 34° SSW 23:52:24 63° WNW 23:58:41 10° N
Cosmos 841 Rocket 4.4 23:50:47 10° NW 23:55:17 30° W 23:55:58 29° WSW
Tiangong 0.4 23:58:18 13° ESE 23:58:18 13° ESE 23:58:45 10° ESE
